• Join FlightAware (Why Join?)
  • Login
  • US Flag 
03:37AM EST


 

Airport Tracker/Info


-or-


 

Live Flight TrackerFlight Track Log ✈ N465TP ✈ 02-Sep-2013 ✈ KSFO - KCOD

Flight Track Log - Related Links

Times and Time Zones

All times are in EDT time to prevent confusion due to time zone crossing. See the N465TP flight status page for this flight to view local times or setup timezone preferences in your user account.

Time Position Orientation Groundspeed Altitude Reporting Facility
EDT Latitude Longitude Course Direction KTS MPH feet Rate Location/Type
02:28PM 37.6333 -122.3500 50° Northeast 130 150 1,100  Level Northern Cal TRACON
02:29PM 37.6667 -122.3167 38° Northeast 124 143 2,700 1,380 Climbing Northern Cal TRACON
02:30PM 37.6833 -122.2833 58° Northeast 145 167 3,900 1,200 Climbing Northern Cal TRACON
02:31PM 37.7167 -122.2500 38° Northeast 154 177 5,000 1,200 Climbing Northern Cal TRACON
02:32PM 37.7333 -122.2000 67° East 162 186 6,200 1,200 Climbing Northern Cal TRACON
02:33PM 37.7667 -122.1500 50° Northeast 171 197 7,400 1,200 Climbing Northern Cal TRACON
02:34PM 37.6199 -122.3618 50° Northeast  Level FlightAware Approximate
02:34PM 37.8000 -122.1000 50° Northeast 180 207 8,700  Level Northern Cal TRACON
02:35PM 37.8167 -122.0500 67° East 184 212 9,700 1,020 Climbing Northern Cal TRACON
02:36PM 37.8500 -122.0000 50° Northeast 188 216 10,700 1,080 Climbing Northern Cal TRACON
02:37PM 37.8833 -121.9500 50° Northeast 194 223 11,900 1,080 Climbing Northern Cal TRACON
02:38PM 37.9075 -121.9042 56° Northeast 192 221 12,600 1,020 Climbing Oakland Center
02:39PM 37.9381 -121.8467 56° Northeast 196 226 13,700 1,020 Climbing Oakland Center
02:40PM 37.9750 -121.7944 48° Northeast 202 232 14,800 1,080 Climbing Oakland Center
02:41PM 38.0333 -121.7753 15° North 215 247 16,000 1,020 Climbing Oakland Center
02:42PM 38.0897 -121.7561 15° North 212 244 17,000 960 Climbing Oakland Center
02:43PM 38.1506 -121.7381 13° North 221 254 18,000 960 Climbing Oakland Center
02:44PM 38.2131 -121.7183 14° North 229 264 19,100 1,080 Climbing Oakland Center
02:45PM 38.2886 -121.6911 16° North 237 273 20,300 1,020 Climbing Oakland Center
02:46PM 38.3522 -121.6694 15° North 237 273 21,200 840 Climbing Oakland Center
02:47PM 38.4164 -121.6422 18° North 242 278 22,100 900 Climbing Oakland Center
02:48PM 38.4908 -121.6142 16° North 251 289 23,100 960 Climbing Oakland Center
02:49PM 38.5611 -121.5903 15° North 257 296 24,100 780 Climbing Oakland Center
02:50PM 38.6317 -121.5636 16° North 261 300 24,800 360 Climbing Oakland Center
02:51PM 38.7019 -121.5208 25° Northeast 291 335 24,900 240 Climbing Oakland Center
02:52PM 38.7397 -121.4275 63° Northeast 293 337 25,300 720 Climbing Oakland Center
02:53PM 38.7756 -121.3439 61° Northeast 268 308 26,500 720 Climbing Oakland Center
02:54PM 38.8117 -121.2606 61° Northeast 266 306 26,900 180 Climbing Oakland Center
02:55PM 38.8489 -121.1711 62° Northeast 280 322 26,900  Level Oakland Center
02:56PM 38.8900 -121.0803 60° Northeast 291 335 26,900  Level Oakland Center
02:57PM 38.9297 -120.9872 61° Northeast 297 342 26,900  Level Oakland Center
02:59PM 38.9761 -120.8772 61° Northeast 294 338 26,900  Level Oakland Center
03:00PM 39.0147 -120.7864 61° Northeast 291 335 26,900  Level Oakland Center
03:01PM 39.0533 -120.6967 61° Northeast 288 331 26,900  Level Oakland Center
03:02PM 39.0911 -120.6067 62° Northeast 287 330 26,900  Level Oakland Center
03:03PM 39.1286 -120.5172 62° Northeast 286 329 26,900  Level Oakland Center
03:04PM 39.1672 -120.4269 61° Northeast 287 330 26,900  Level Oakland Center
03:05PM 39.2056 -120.3372 61° Northeast 285 328 26,900  Level Oakland Center
03:06PM 39.2506 -120.2297 62° Northeast 283 326 26,900  Level Oakland Center
03:07PM 39.2892 -120.1400 61° Northeast 286 329 26,900  Level Oakland Center
03:08PM 39.3294 -120.0450 61° Northeast 291 335 26,900  Level Oakland Center
03:09PM 39.3664 -119.9544 62° Northeast 286 329 26,900  Level Oakland Center
03:10PM 39.4050 -119.8639 61° Northeast 288 331 26,900  Level Oakland Center
03:11PM 39.4428 -119.7747 61° Northeast 283 326 26,900  Level Oakland Center
03:12PM 39.4786 -119.6844 63° Northeast 282 325 26,900  Level Oakland Center
03:13PM 39.5167 -119.5969 61° Northeast 279 321 26,900  Level Oakland Center
03:14PM 39.5600 -119.4892 62° Northeast 278 320 26,900  Level Oakland Center
03:15PM 39.5964 -119.3992 62° Northeast 282 325 26,900  Level Oakland Center
03:16PM 39.6325 -119.3119 62° Northeast 276 318 26,900  Level Oakland Center
03:17PM 39.6686 -119.2228 62° Northeast 277 319 26,900  Level Oakland Center
03:18PM 39.7053 -119.1325 62° Northeast 279 321 27,000  Climbing Oakland Center
03:19PM 39.7419 -119.0422 62° Northeast 280 322 26,900 -60 Descending Oakland Center
03:20PM 39.7792 -118.9514 62° Northeast 282 325 26,900  Level Oakland Center
03:21PM 39.8153 -118.8600 63° Northeast 284 327 27,000  Climbing Oakland Center
03:22PM 39.8583 -118.7503 63° Northeast 282 325 27,000 -60 Level Oakland Center
03:23PM 39.8950 -118.6594 62° Northeast 283 326 26,900 -60 Descending Oakland Center
03:24PM 39.9317 -118.5683 62° Northeast 283 326 26,900  Level Oakland Center
03:25PM 39.9681 -118.4750 63° Northeast 286 329 27,000  Climbing Oakland Center
03:26PM 40.0056 -118.3811 62° Northeast 290 334 26,900 -60 Descending Oakland Center
03:27PM 40.0428 -118.2875 63° Northeast 290 334 26,900  Level Oakland Center
03:28PM 40.0786 -118.1931 64° Northeast 291 335 26,900  Level Oakland Center
03:29PM 40.1150 -118.1008 63° Northeast 286 329 27,000  Climbing Oakland Center
03:30PM 40.1589 -117.9892 63° Northeast 287 330 26,900 -60 Descending Oakland Center
03:31PM 40.1953 -117.8967 63° Northeast 286 329 26,900  Level Oakland Center
03:32PM 40.2253 -117.8203 63° Northeast 283 326 26,900  Level Salt Lake Center
03:33PM 40.2592 -117.7336 63° Northeast 280 322 26,900  Level Salt Lake Center
03:34PM 40.2983 -117.6322 63° Northeast 280 322 26,900  Level Salt Lake Center
03:35PM 40.3325 -117.5439 63° Northeast 282 325 26,900  Level Salt Lake Center
03:36PM 40.3722 -117.4411 63° Northeast 283 326 26,900  Level Salt Lake Center
03:38PM 40.4064 -117.3536 63° Northeast 283 326 26,900  Level Salt Lake Center
03:39PM 40.4467 -117.2506 63° Northeast 282 325 26,900  Level Salt Lake Center
03:40PM 40.4822 -117.1628 62° Northeast 283 326 26,900  Level Salt Lake Center
03:41PM 40.5169 -117.0753 62° Northeast 282 325 27,000  Climbing Salt Lake Center
03:42PM 40.5578 -116.9725 62° Northeast 281 323 26,900 -60 Descending Salt Lake Center
03:43PM 40.5919 -116.8836 63° Northeast 282 325 26,900  Level Salt Lake Center
03:44PM 40.6319 -116.7794 63° Northeast 284 327 26,900  Level Salt Lake Center
03:45PM 40.6656 -116.6919 63° Northeast 280 322 26,900  Level Salt Lake Center
03:46PM 40.7003 -116.6028 63° Northeast 283 326 26,900  Level Salt Lake Center
03:47PM 40.7408 -116.5000 62° Northeast 283 326 26,900  Level Salt Lake Center
03:48PM 40.7747 -116.4131 63° Northeast 279 321 26,900  Level Salt Lake Center
03:49PM 40.8142 -116.3103 63° Northeast 279 321 26,900  Level Salt Lake Center
03:50PM 40.8478 -116.2225 63° Northeast 280 322 27,000  Climbing Salt Lake Center
03:51PM 40.8869 -116.1189 63° Northeast 281 323 26,900 -60 Descending Salt Lake Center
03:52PM 40.9203 -116.0297 64° Northeast 282 325 26,900  Level Salt Lake Center
03:53PM 40.9600 -115.9281 63° Northeast 279 321 27,000  Climbing Salt Lake Center
03:54PM 40.9925 -115.8397 64° Northeast 279 321 27,000  Level Salt Lake Center
03:55PM 41.0314 -115.7375 63° Northeast 279 321 27,000 -60 Level Salt Lake Center
03:56PM 41.0639 -115.6494 64° Northeast 278 320 26,900  Descending Salt Lake Center
03:57PM 41.0978 -115.5611 63° Northeast 280 322 27,000  Climbing Salt Lake Center
03:58PM 41.1358 -115.4575 64° Northeast 279 321 26,900  Descending Salt Lake Center
03:59PM 41.1675 -115.3694 64° Northeast 278 320 27,000  Climbing Salt Lake Center
04:00PM 41.2075 -115.2656 63° Northeast 281 323 26,900 -60 Descending Salt Lake Center
04:01PM 41.2394 -115.1783 64° Northeast 278 320 26,900  Level Salt Lake Center
04:02PM 41.2767 -115.0714 65° Northeast 283 326 26,900  Level Salt Lake Center
04:03PM 41.3114 -114.9833 62° Northeast 282 325 26,900  Level Salt Lake Center
04:04PM 41.3503 -114.8789 64° Northeast 282 325 26,900  Level Salt Lake Center
04:05PM 41.3797 -114.7947 65° Northeast 283 326 27,000  Climbing Salt Lake Center
04:06PM 41.4144 -114.7011 64° Northeast 282 325 27,000  Level Salt Lake Center
04:07PM 41.4550 -114.5881 64° Northeast 282 325 27,000 -60 Level Salt Lake Center
04:08PM 41.4872 -114.4922 66° East 283 326 26,900  Descending Salt Lake Center
04:10PM 41.5225 -114.3997 63° Northeast 281 323 27,000  Climbing Salt Lake Center
04:11PM 41.5564 -114.3053 64° Northeast 282 325 27,000 -60 Level Salt Lake Center
04:12PM 41.5906 -114.2114 64° Northeast 282 325 26,900 -60 Descending Salt Lake Center
04:13PM 41.6217 -114.1181 66° East 277 319 26,900  Level Salt Lake Center
04:14PM 41.6633 -114.0061 63° Northeast 280 322 27,000  Climbing Salt Lake Center
04:15PM 41.6944 -113.9128 66° East 277 319 26,900  Descending Salt Lake Center
04:16PM 41.7278 -113.8181 65° Northeast 279 321 27,000  Climbing Salt Lake Center
04:17PM 41.7614 -113.7233 65° Northeast 281 323 27,000 -60 Level Salt Lake Center
04:18PM 41.7939 -113.6306 65° Northeast 276 318 26,900  Descending Salt Lake Center
04:19PM 41.8278 -113.5369 64° Northeast 278 320 27,000  Climbing Salt Lake Center
04:20PM 41.8608 -113.4411 65° Northeast 282 325 27,000  Level Salt Lake Center
04:21PM 41.9000 -113.3269 65° Northeast 281 323 27,000 -60 Level Salt Lake Center
04:22PM 41.9328 -113.2328 65° Northeast 281 323 26,900  Descending Salt Lake Center
04:23PM 41.9653 -113.1381 65° Northeast 279 321 27,000  Climbing Salt Lake Center
04:24PM 41.9972 -113.0439 65° Northeast 279 321 27,000  Level Salt Lake Center
04:25PM 42.0300 -112.9511 65° Northeast 276 318 27,000  Level Salt Lake Center
04:26PM 42.0614 -112.8569 66° East 276 318 27,000  Level Salt Lake Center
04:27PM 42.0992 -112.7456 65° Northeast 273 314 27,000  Level Salt Lake Center
04:28PM 42.1303 -112.6519 66° East 273 314 27,000  Level Salt Lake Center
04:29PM 42.1614 -112.5597 66° East 272 313 27,000  Level Salt Lake Center
04:30PM 42.1942 -112.4650 65° Northeast 278 320 27,000  Level Salt Lake Center
04:31PM 42.2367 -112.3803 56° Northeast 280 322 27,000  Level Salt Lake Center
04:32PM 42.2581 -112.2825 74° East 273 314 27,000  Level Salt Lake Center
04:33PM 42.2892 -112.1883 66° East 275 316 27,000 -60 Level Salt Lake Center
04:34PM 42.3286 -112.0767 64° Northeast 274 315 26,900 -60 Descending Salt Lake Center
04:35PM 42.3594 -111.9814 66° East 277 319 26,900  Level Salt Lake Center
04:36PM 42.3922 -111.8889 64° Northeast 275 316 27,000  Climbing Salt Lake Center
04:37PM 42.4239 -111.7958 65° Northeast 274 315 27,000  Level Salt Lake Center
04:38PM 42.4539 -111.7033 66° East 270 311 27,000  Level Salt Lake Center
04:39PM 42.4853 -111.6117 65° Northeast 268 308 27,000  Level Salt Lake Center
04:40PM 42.5172 -111.5189 65° Northeast 272 313 27,000  Level Salt Lake Center
04:41PM 42.5550 -111.4067 65° Northeast 274 315 27,000 -60 Level Salt Lake Center
04:43PM 42.5864 -111.3128 66° East 272 313 26,900  Descending Salt Lake Center
04:44PM 42.6169 -111.2186 66° East 271 312 27,000  Climbing Salt Lake Center
04:45PM 42.6483 -111.1247 66° East 273 314 27,000  Level Salt Lake Center
04:46PM 42.6792 -111.0319 66° East 271 312 27,000  Level Salt Lake Center
04:47PM 42.7331 -110.9425 51° Northeast 283 326 27,000  Level Salt Lake Center
04:48PM 42.7867 -110.8750 43° Northeast 277 319 27,000  Level Salt Lake Center
04:49PM 42.8492 -110.7922 44° Northeast 279 321 27,000  Level Salt Lake Center
04:50PM 42.9028 -110.7228 43° Northeast 279 321 27,000  Level Salt Lake Center
04:51PM 42.9650 -110.6389 45° Northeast 283 326 27,000  Level Salt Lake Center
04:52PM 43.0194 -110.5678 44° Northeast 283 326 27,000 -60 Level Salt Lake Center
04:53PM 43.0842 -110.4847 43° Northeast 286 329 26,900  Descending Salt Lake Center
04:54PM 43.1389 -110.4097 45° Northeast 289 333 27,000  Climbing Salt Lake Center
04:55PM 43.2025 -110.3250 44° Northeast 288 331 27,000  Level Salt Lake Center
04:56PM 43.2594 -110.2481 45° Northeast 289 333 27,000  Level Salt Lake Center
04:57PM 43.3139 -110.1747 44° Northeast 288 331 27,000  Level Salt Lake Center
04:58PM 43.3772 -110.0886 45° Northeast 287 330 27,000  Level Salt Lake Center
04:59PM 43.4311 -110.0158 44° Northeast 285 328 27,000  Level Salt Lake Center
05:00PM 43.4928 -109.9325 44° Northeast 280 322 27,000  Level Salt Lake Center
05:01PM 43.5425 -109.8633 45° Northeast 278 320 27,000  Level Salt Lake Center
05:02PM 43.6039 -109.7822 44° Northeast 277 319 27,000  Level Salt Lake Center
05:03PM 43.6575 -109.7092 45° Northeast 281 323 27,000  Level Salt Lake Center
05:04PM 43.7194 -109.6247 45° Northeast 281 323 27,000  Level Salt Lake Center
05:05PM 43.7719 -109.5500 46° Northeast 282 325 27,000  Level Salt Lake Center
05:06PM 43.8347 -109.4669 44° Northeast 286 329 27,000  Level Salt Lake Center
05:07PM 43.8889 -109.3894 46° Northeast 281 323 27,000 -180 Level Salt Lake Center
05:08PM 43.9453 -109.3131 44° Northeast 283 326 26,700 -1,020 Descending Salt Lake Center
05:09PM 44.0044 -109.2300 45° Northeast 298 343 25,000 -1,800 Descending Salt Lake Center
05:10PM 44.0642 -109.1461 45° Northeast 305 351 23,100 -2,100 Descending Salt Lake Center
05:11PM 44.1303 -109.0533 45° Northeast 288 331 20,700 -1,920 Descending Salt Lake Center
05:12PM 44.1831 -108.9792 45° Northeast 276 318 19,200 -1,500 Descending Salt Lake Center
05:13PM 44.2367 -108.9050 45° Northeast 271 312 17,700 -1,440 Descending Salt Lake Center
05:14PM 44.2900 -108.8297 45° Northeast 273 314 16,300 -1,440 Descending Salt Lake Center
05:16PM 44.3375 -108.7583 47° Northeast 261 300 14,800 -1,500 Descending Salt Lake Center
05:17PM 44.2997 -108.7550 176° South 226 260 13,300 -1,500 Descending Salt Lake Center
05:18PM 44.3422 -108.8214 312° West 231 266 11,800 -1,680 Descending Salt Lake Center
05:19PM 44.4033 -108.8906 321° Northwest 234 269 9,900 -1,860 Descending Salt Lake Center